Wind_Speed
44 45 44 43 42 41 39 38 36 34 33 33 33 32 31 30 28 26 23 23 22 23 24 23 22 22 22 21 21 19 19 19 18 18 17 16 16 14 13 13 12 12 12 12 11 11 12 11 10 9 9 8 8 7 8 9 9 8 8 9 9 9 11 12 14 16 15 15 16 15 14 15 16 18 19 20 21 22 24 26 27 27 28 29 29
44 45 45 44 43 42 40 39 37 35 33 33 33 32 31 31 30 28 25 24 24 24 24 24 23 23 22 22 22 21 21 21 20 19 18 18 17 15 15 15 15 13 13 13 13 13 13 12 10 10 10 10 10 9 8 9 10 10 9 10 10 10 11 13 14 16 18 17 17 16 16 16 18 19 20 22 23 25 26 28 28 28 28 29 30
42 45 46 46 45 43 41 40 38 37 35 34 33 32 31 31 31 30 27 25 25 25 24 24 25 25 24 23 24 23 23 23 22 21 20 20 18 17 16 16 17 16 15 15 15 14 15 14 12 12 12 12 12 11 10 11 11 11 11 11 12 12 12 13 15 17 19 18 18 18 18 18 19 21 23 24 24 26 27 27 28 28 27 27 28
40 44 46 46 46 45 43 41 39 38 36 35 34 32 30 30 31 31 29 26 25 27 26 25 26 27 27 26 26 26 25 25 25 24 22 21 20 19 18 17 17 17 17 16 15 15 15 15 14 13 13 13 14 12 12 12 12 13 13 13 14 14 14 15 17 18 19 20 21 21 21 23 24 24 24 24 24 25 26 27 27 27 27 26 24
39 42 45 46 46 46 45 43 41 40 37 34 33 32 30 29 30 31 30 27 25 27 28 28 27 29 29 28 28 28 27 27 27 26 25 23 23 22 20 20 20 19 19 17 16 16 16 16 15 15 14 15 15 14 14 14 14 13 13 14 14 14 15 16 17 18 20 21 22 23 23 24 23 21 21 22 24 24 25 26 26 26 26 22 18
39 41 42 43 45 46 46 44 43 41 39 35 32 32 31 29 29 30 30 29 27 26 29 30 30 31 30 30 29 29 29 28 28 27 26 25 24 24 23 22 21 22 21 20 18 18 18 17 17 16 16 17 16 16 15 15 15 15 15 15 14 15 16 17 17 19 19 20 21 22 22 20 18 18 19 21 22 23 24 26 26 25 23 21 22
38 39 40 41 43 46 46 46 44 41 39 37 33 31 32 30 29 28 29 29 28 27 27 30 32 32 31 30 30 30 29 29 29 28 27 26 25 25 24 23 22 22 22 21 20 19 19 19 19 18 18 18 18 17 17 17 17 16 16 16 16 16 17 16 16 16 17 17 18 19 18 17 17 19 21 20 20 22 24 26 26 25 26 27 28
38 39 39 40 43 46 46 46 44 40 39 38 34 32 32 31 30 29 28 29 29 28 27 28 31 32 32 31 31 30 30 30 29 29 28 27 26 26 26 24 22 22 22 22 21 20 19 19 19 19 19 19 18 17 17 17 17 16 16 16 17 17 17 17 16 16 17 17 18 18 18 18 20 20 20 20 20 21 22 24 28 31 34 36 33
38 38 39 41 43 46 46 45 45 42 39 38 36 34 32 32 31 30 29 29 30 29 28 27 28 31 31 31 31 30 30 31 31 30 30 29 27 27 27 26 24 22 21 21 20 20 19 19 18 19 19 20 19 18 17 18 18 17 17 18 19 19 19 18 18 18 19 19 19 18 18 18 19 18 18 19 20 22 24 26 30 34 37 40 39
38 38 39 41 42 44 45 45 45 44 41 39 39 36 33 32 32 31 31 30 30 30 30 28 27 29 31 32 32 31 31 32 32 31 30 30 29 28 28 28 27 25 24 23 22 20 19 19 19 19 20 21 22 21 19 19 19 18 18 19 20 20 20 20 19 19 19 18 18 17 17 18 18 16 18 20 20 23 26 28 31 35 38 41 41
38 38 37 38 40 43 45 46 45 45 43 41 41 39 35 32 32 33 32 31 31 31 31 30 29 28 29 31 32 33 33 33 33 32 31 30 29 28 29 29 29 29 28 27 26 24 21 20 19 19 20 22 24 24 22 20 20 20 19 20 21 22 22 22 21 21 21 19 18 17 18 20 19 18 18 19 21 24 27 28 31 34 36 38 40
38 38 37 37 39 42 45 46 46 46 45 44 44 43 38 34 33 33 33 32 32 32 31 32 31 29 28 28 29 32 34 35 35 34 33 30 29 29 28 28 29 30 29 29 28 27 25 22 20 19 19 21 23 24 23 21 21 20 20 20 21 22 23 24 24 25 24 24 23 22 24 26 25 23 20 18 22 26 28 28 30 32 33 34 37
37 38 37 37 39 42 44 46 47 47 47 46 46 44 42 38 35 34 33 33 33 33 32 32 33 32 29 28 28 29 31 34 35 35 33 31 29 28 28 28 28 28 29 29 28 28 28 27 24 23 21 20 21 23 23 23 21 21 21 22 22 23 24 25 25 26 25 26 26 27 28 29 29 28 22 19 23 26 27 29 30 30 32 33 34
36 38 38 38 40 43 42 43 46 47 46 47 47 45 44 42 38 34 33 33 34 36 34 33 33 34 32 30 28 28 28 30 33 35 34 31 29 27 27 27 27 26 26 27 27 28 29 29 28 27 26 24 23 24 26 26 25 24 24 24 24 24 24 23 23 23 23 23 24 26 27 28 28 28 21 17 21 25 27 30 30 30 32 32 33
36 38 38 38 41 44 41 38 42 46 46 46 47 46 45 45 42 36 33 33 35 38 37 34 34 36 35 33 30 28 28 28 30 32 32 31 29 27 27 27 27 26 26 27 28 29 30 30 29 29 28 28 27 27 27 27 27 27 26 25 25 25 24 23 22 20 19 20 21 23 24 24 25 25 21 18 21 25 27 28 29 30 31 31 31
36 38 40 40 42 45 43 38 40 45 46 45 47 47 45 45 44 41 35 31 32 36 38 36 35 36 37 36 32 29 28 29 31 32 32 31 28 27 27 29 29 29 29 30 31 31 31 31 30 29 29 29 29 28 27 27 27 25 23 23 23 22 21 21 20 19 19 19 19 20 20 21 22 23 23 23 24 24 25 27 27 28 28 29 29
39 40 42 42 42 44 45 42 42 44 45 45 46 46 45 44 44 43 39 33 30 33 36 37 36 36 36 37 36 33 29 30 32 34 34 33 29 27 28 30 31 32 32 31 32 32 32 31 31 31 30 30 29 28 27 27 27 26 25 24 24 22 21 18 17 18 18 18 18 19 20 21 21 23 24 24 22 23 25 26 26 26 27 28 29
41 43 44 43 43 44 45 45 45 45 44 45 46 46 46 44 44 44 43 38 32 29 32 34 35 35 36 36 37 37 33 32 34 35 35 34 31 29 29 31 32 32 33 33 33 33 32 32 32 31 31 30 29 29 28 28 29 28 27 25 24 24 22 18 15 16 18 18 19 21 21 21 22 23 23 21 21 22 23 24 25 25 23 24 27
44 46 45 42 41 42 43 44 45 44 44 45 45 45 46 45 44 43 43 41 36 30 29 30 31 33 34 33 34 36 35 33 34 34 34 34 32 30 30 31 32 33 33 34 34 34 33 33 33 32 31 30 29 29 29 29 29 29 27 25 24 23 20 15 13 15 18 18 17 17 18 19 20 21 21 19 19 19 19 21 21 19 19 22 24
45 44 42 40 39 40 41 43 44 43 43 43 44 44 44 43 43 43 42 41 38 33 29 27 28 29 30 30 30 33 34 34 34 33 33 33 32 31 30 31 32 33 34 34 34 34 34 34 33 33 32 30 30 30 30 30 30 29 27 25 24 22 18 15 15 19 20 19 18 18 18 19 20 19 16 15 16 16 16 17 17 15 17 21 20
41 40 39 39 37 37 38 40 42 41 41 41 42 42 42 42 42 42 41 39 37 35 31 28 26 27 27 27 28 29 31 33 35 35 35 34 33 31 31 31 31 32 33 33 34 34 34 34 34 34 32 31 30 30 30 31 30 30 28 26 25 25 22 20 19 21 22 23 23 21 17 16 15 13 10 10 11 11 11 13 14 14 16 18 19
39 39 40 38 36 35 36 38 39 38 38 39 40 41 41 40 40 40 39 37 36 36 35 31 27 26 26 26 26 27 28 31 33 34 35 35 33 31 30 30 30 30 31 32 33 34 34 34 33 33 33 32 31 31 31 30 30 30 29 28 28 28 26 23 22 21 20 19 18 15 12 13 13 11 10 9 9 10 13 14 15 16 17 17 18
38 40 41 38 36 35 35 36 37 35 35 38 39 39 40 39 38 38 37 35 34 35 36 34 29 26 25 26 26 26 26 28 31 33 33 33 32 31 29 28 29 29 29 31 32 32 32 31 30 30 31 31 30 30 29 28 28 30 29 28 28 27 24 22 22 22 20 16 13 12 13 13 12 10 11 12 12 14 16 17 16 16 16 15 15
37 39 40 37 36 34 34 35 35 33 34 37 38 38 39 38 37 37 36 35 34 33 35 36 33 29 26 25 25 25 25 26 29 32 32 31 32 31 29 28 28 28 28 29 28 26 26 26 26 26 27 28 29 28 27 25 26 27 27 26 26 24 23 22 22 21 19 16 14 14 13 12 12 12 14 16 15 15 16 16 15 15 13 13 14
35 37 37 36 35 34 32 33 34 32 33 36 37 37 37 37 36 36 36 35 34 33 32 33 33 31 28 25 25 24 24 25 27 29 28 28 29 29 29 28 29 29 29 28 27 25 24 24 23 23 24 25 26 26 26 24 24 25 25 24 24 23 23 22 20 18 16 14 15 14 11 10 14 16 15 15 14 14 15 15 14 13 12 13 13
33 34 34 34 34 32 30 31 31 31 32 34 35 36 36 36 36 36 36 36 35 34 32 30 29 29 27 25 25 24 23 24 26 27 25 24 24 25 25 26 28 29 29 29 29 30 29 27 25 24 24 24 24 25 25 24 23 24 23 23 23 23 23 23 21 18 16 14 13 11 9 10 14 16 14 13 13 13 13 13 12 11 11 13 12
31 32 32 31 31 30 30 29 29 30 31 32 32 34 35 35 35 36 36 36 35 33 31 28 26 26 26 25 24 24 24 24 25 27 28 26 25 24 23 22 24 27 30 31 31 31 31 30 29 28 27 25 26 27 26 24 23 23 22 23 24 22 21 20 18 15 16 15 12 12 13 14 14 14 13 11 11 12 12 11 10 10 12 12 12
29 29 28 28 29 29 29 29 28 29 30 30 30 31 32 32 34 35 36 35 34 31 29 28 27 25 25 24 23 23 24 24 24 26 29 28 27 26 25 24 25 27 31 33 31 29 29 30 31 31 31 29 28 26 27 27 26 24 23 23 23 21 20 19 16 15 17 17 17 17 16 14 13 12 10 8 10 11 12 10 10 10 11 10 10
27 26 26 26 27 28 28 28 27 26 27 27 26 26 27 28 29 30 31 33 32 29 27 26 26 25 23 23 24 24 24 25 25 26 28 28 25 24 25 25 26 27 29 31 30 27 26 27 30 32 31 30 26 22 23 25 25 24 25 24 20 18 18 19 18 18 19 19 19 18 16 13 12 12 9 9 11 12 10 9 9 9 9 10 9
25 24 24 24 25 26 26 26 26 25 24 25 25 26 27 27 26 26 27 28 29 28 26 25 25 25 24 24 24 24 25 25 25 25 27 27 24 22 22 21 22 24 25 27 28 26 23 24 26 25 23 22 21 19 20 23 20 19 23 24 20 17 18 19 19 20 20 19 18 16 14 13 11 10 9 9 10 10 9 8 8 8 9 9 8
24 24 23 22 24 25 25 25 25 24 23 24 25 27 28 28 27 27 26 26 27 29 30 29 27 26 26 25 25 26 26 25 24 23 25 26 24 22 19 15 14 17 21 24 28 28 23 20 20 19 18 18 18 19 21 23 19 15 17 18 19 20 22 21 19 19 20 18 16 15 13 12 10 9 9 9 9 8 7 7 7 7 8 8 8
22 22 21 21 22 24 24 23 25 25 23 23 24 25 27 29 29 29 28 27 28 29 30 30 29 28 27 27 28 28 27 27 25 23 23 24 23 22 20 17 15 17 19 22 27 29 24 19 18 19 19 19 19 19 20 20 18 16 17 18 21 23 23 19 18 20 19 16 14 13 12 11 9 9 9 8 8 8 6 5 6 6 6 7 8
20 19 20 21 22 23 23 22 24 25 24 23 23 23 24 27 30 32 32 31 29 29 29 30 31 30 29 29 29 27 26 27 27 25 24 23 22 22 21 20 19 20 21 23 27 29 26 22 20 20 20 20 20 19 19 19 18 18 19 21 23 22 20 19 21 21 18 14 12 11 11 10 9 9 9 8 7 6 5 5 6 6 6 7 7
18 18 19 20 21 23 23 22 22 24 24 23 23 23 22 22 24 30 33 33 33 31 30 29 29 30 31 31 30 28 25 24 24 25 24 24 23 23 23 22 21 22 24 25 27 28 26 23 22 21 21 22 22 20 19 20 20 20 19 19 19 19 20 23 24 21 17 16 14 12 12 10 9 8 7 6 6 6 5 6 6 5 6 6 7
16 16 18 20 20 21 22 21 21 22 23 23 23 23 22 20 20 22 26 30 33 34 32 31 30 29 29 30 30 30 28 26 25 25 24 24 23 22 22 23 23 24 25 26 27 26 22 22 24 26 25 24 23 22 22 21 19 18 17 16 18 21 24 25 23 19 18 17 14 13 13 11 10 8 7 6 7 6 5 6 6 5 5 6 7
15 14 16 18 18 19 21 21 21 20 21 22 23 23 23 22 21 20 20 21 24 27 30 33 33 30 27 27 28 29 30 29 28 27 26 25 23 21 22 24 25 27 28 28 26 23 21 23 27 29 28 26 24 25 24 20 16 16 18 20 23 26 25 23 20 19 19 15 12 12 13 11 9 8 7 7 7 7 6 6 6 5 6 6 7
16 15 16 17 16 16 18 20 20 19 19 20 21 21 22 21 21 21 20 18 18 22 27 29 30 29 29 29 27 26 27 27 27 27 26 25 23 22 23 23 23 25 28 29 27 25 25 27 29 29 28 27 27 26 22 17 16 19 22 25 28 28 24 21 21 21 19 14 11 12 14 11 8 8 8 7 7 7 6 6 7 6 7 8 8
13 16 18 18 16 16 16 18 20 21 19 19 19 20 21 20 19 19 21 21 23 25 25 24 24 26 28 28 27 26 25 25 25 26 26 26 24 24 24 23 22 22 25 28 30 31 30 31 31 30 29 29 30 27 22 20 24 29 30 28 27 24 21 22 21 19 17 15 12 12 13 11 9 9 8 7 7 7 6 7 7 6 7 8 7
9 14 19 19 17 16 14 13 15 16 17 17 17 18 19 19 18 19 22 24 25 25 25 25 25 25 23 23 25 25 24 24 25 26 26 26 25 25 25 26 27 27 28 30 32 33 33 32 32 31 31 32 32 31 29 28 30 33 31 27 22 19 19 19 16 14 15 14 12 10 9 8 8 8 7 7 7 8 8 8 8 8 8 7 7
7 10 15 15 13 12 11 9 11 13 12 14 16 18 18 18 17 19 22 21 19 20 24 25 25 24 21 20 22 23 23 24 25 26 27 27 27 28 29 30 31 31 31 31 30 29 30 32 32 32 32 32 30 29 29 29 29 29 27 22 18 17 16 14 12 12 13 12 10 9 8 7 7 8 7 8 8 9 9 9 9 9 9 9 10
7 10 13 12 11 11 10 11 15 16 14 14 18 20 22 22 20 19 19 18 16 18 22 23 23 22 20 18 19 21 22 24 25 25 26 27 28 29 30 30 29 29 29 29 27 26 29 31 32 31 31 29 26 24 23 24 24 24 21 16 14 14 13 10 8 8 9 9 7 6 6 6 7 8 8 8 9 10 10 10 9 10 11 12 13
6 10 13 13 12 11 10 11 15 16 15 16 19 20 22 24 24 21 20 20 20 21 23 23 22 20 19 19 21 21 21 22 24 25 26 27 27 26 26 26 24 23 23 23 24 25 26 28 27 26 24 22 20 20 21 21 21 21 18 14 12 12 12 10 8 8 8 8 6 6 7 8 9 9 9 8 7 8 9 11 11 12 13 13 14
6 5 9 11 12 11 9 9 12 14 13 14 16 18 20 23 25 24 23 23 23 22 21 20 18 18 19 22 24 23 21 21 23 24 24 24 22 21 21 22 20 18 18 18 20 21 22 22 22 21 19 17 16 18 19 18 17 16 15 14 12 10 10 10 9 8 7 6 6 8 9 9 9 9 9 8 8 9 10 11 12 13 14 14 14
10 7 4 6 9 10 9 8 8 9 10 11 15 17 19 21 23 24 23 22 21 20 19 18 18 20 22 23 21 19 17 19 20 21 21 21 21 20 21 20 20 19 18 18 19 20 19 19 20 20 19 17 17 19 19 19 18 16 13 13 14 15 15 17 16 13 11 9 9 8 7 6 6 7 8 8 10 10 11 12 13 14 15 15 15
12 11 9 7 6 9 10 10 10 9 9 9 11 14 16 17 19 19 20 19 19 18 18 19 20 21 20 18 15 13 13 15 17 18 19 19 21 22 21 19 19 19 19 18 19 19 19 19 21 21 21 19 18 18 18 19 19 18 17 18 20 21 21 21 20 17 14 12 9 6 4 4 6 7 8 10 11 11 11 12 13 14 14 14 15
13 11 9 9 8 8 9 10 11 11 10 10 10 10 11 13 14 14 15 16 17 18 19 21 20 18 15 12 11 11 12 12 14 15 16 16 17 17 16 15 16 17 17 17 17 18 19 19 19 20 20 19 18 17 16 16 15 16 16 16 17 17 17 17 16 14 12 10 9 5 3 3 4 6 8 10 10 9 9 11 12 13 13 13 14
13 10 8 8 9 9 8 7 7 7 9 11 12 12 12 12 13 14 15 16 17 18 19 18 15 12 10 10 11 12 12 13 14 15 16 16 16 16 15 16 16 17 17 17 18 17 17 16 16 16 16 16 15 14 14 14 13 13 12 10 10 10 11 12 11 9 8 7 7 7 6 5 4 5 6 7 8 8 9 10 11 11 11 12 12
12 10 8 8 8 8 8 7 6 6 6 8 11 13 14 14 15 16 17 17 18 18 17 13 10 10 12 14 15 16 17 18 18 18 18 18 17 17 17 17 17 17 16 16 15 15 14 13 13 13 13 12 11 11 10 10 11 10 10 8 8 8 8 8 7 7 7 6 6 7 6 5 5 5 6 7 7 7 8 9 9 9 9 9 10
10 9 9 8 7 6 6 5 5 7 8 9 11 13 15 16 17 18 17 16 17 20 19 16 15 17 19 19 19 19 19 19 20 20 20 19 19 19 18 18 17 16 15 14 13 13 12 12 11 11 10 10 10 10 10 10 10 10 9 9 8 8 9 9 9 8 8 8 8 7 6 5 6 6 6 6 7 8 8 8 9 10 10 10 10
10 9 9 8 7 5 4 3 4 6 9 10 11 11 12 14 15 17 16 15 17 20 21 20 20 21 22 22 21 21 20 20 20 19 18 18 18 17 16 16 15 15 14 13 12 12 12 12 12 12 11 11 11 11 11 11 11 10 10 10 10 10 10 10 11 10 10 10 9 9 8 9 11 11 11 12 13 14 15 15 15 15 16 15 15
8 8 7 6 5 3 2 3 4 5 7 10 11 12 12 13 14 16 17 17 18 19 20 19 19 19 20 20 20 20 19 19 18 17 17 17 17 16 15 14 14 13 13 13 13 13 13 12 12 12 12 11 11 11 10 10 10 10 10 10 10 10 11 11 11 11 11 11 12 12 13 14 14 15 15 16 17 17 18 19 19 19 19 19 19
Wind_Direction
214 215 215 216 217 218 218 217 216 216 215 215 218 221 221 220 221 218 211 210 208 212 221 221 220 222 218 216 216 216 220 220 217 218 216 215 219 218 217 227 231 228 228 225 221 228 235 235 236 240 242 245 244 240 246 264 277 277 272 273 277 285 291 292 295 299 305 307 304 301 298 294 294 297 301 303 305 306 307 307 309 311 310 311 312
212 214 214 215 216 217 217 217 217 216 215 215 216 218 220 221 221 218 213 211 210 213 220 221 220 222 220 218 218 216 218 223 221 221 221 219 222 223 221 226 231 231 233 235 232 232 237 239 240 244 247 248 248 244 239 244 257 267 271 272 273 275 280 285 288 293 298 302 301 298 297 296 297 300 301 301 301 302 304 306 308 308 308 308 309
207 212 213 215 215 216 216 217 218 217 215 216 216 215 217 220 220 219 214 212 214 215 218 220 220 222 221 220 224 221 220 224 224 223 224 223 222 223 224 230 235 235 237 242 242 241 243 244 242 243 247 251 252 250 244 241 242 246 250 255 260 263 266 271 277 284 290 294 296 296 297 297 297 300 301 300 301 303 305 307 309 309 309 307 306
201 209 213 214 214 214 216 217 218 218 215 214 214 212 212 216 219 221 216 211 214 218 217 217 220 224 223 222 227 228 225 227 228 227 227 227 225 225 226 230 236 239 241 243 246 246 244 244 243 243 242 245 252 254 250 248 248 249 253 257 263 269 272 274 278 285 289 293 297 299 300 303 306 308 308 306 306 307 307 308 311 313 314 310 307
196 206 211 211 212 214 216 216 216 217 215 211 210 209 206 210 216 220 219 211 209 217 219 216 218 224 225 224 227 230 230 230 231 230 230 230 230 229 230 233 237 242 244 242 242 243 244 243 243 243 239 239 248 253 252 253 254 254 259 264 270 276 280 284 288 291 292 293 297 301 303 307 310 311 309 307 307 308 311 314 317 318 317 313 309
193 201 205 205 209 213 214 214 214 216 214 207 204 205 203 204 209 215 217 212 206 212 219 218 218 224 226 225 226 230 231 231 232 232 230 230 232 232 233 235 239 244 247 245 242 242 245 246 244 242 241 241 244 247 248 252 256 259 261 266 271 275 279 285 289 292 294 294 297 301 304 306 305 302 302 304 306 311 316 318 317 317 315 309 305
192 196 198 199 205 210 213 214 213 211 210 205 201 201 202 202 204 208 212 212 206 206 214 218 220 224 227 226 226 229 231 232 233 234 231 228 232 235 235 234 237 243 247 247 246 244 245 248 247 245 245 246 247 247 247 253 259 263 266 271 278 281 283 285 285 287 290 289 290 294 296 297 296 297 303 308 309 311 314 313 308 307 306 303 301
192 194 194 195 203 210 213 215 212 207 206 205 200 199 201 201 202 205 207 209 207 204 208 215 219 224 227 228 227 228 230 232 232 235 235 231 231 236 238 235 233 237 243 246 246 242 240 242 245 246 247 248 250 249 250 256 260 262 266 273 279 282 284 285 282 281 283 283 284 285 288 292 295 300 306 309 306 304 304 301 300 303 307 307 305
193 193 194 195 203 210 212 213 213 208 205 204 200 198 200 201 201 203 205 207 206 205 206 210 217 222 225 228 228 227 229 232 233 233 235 235 233 235 241 242 236 231 233 240 244 242 240 238 239 242 245 250 254 253 252 256 260 264 269 276 281 282 283 283 281 282 284 285 284 286 288 289 292 297 299 300 300 298 297 296 298 303 306 307 309
195 194 195 196 201 208 211 212 212 210 206 205 204 201 199 200 201 202 205 206 205 206 206 207 212 219 223 226 228 228 229 233 236 235 235 236 236 235 239 245 245 238 234 237 240 239 239 239 240 242 245 251 257 259 258 260 264 266 269 275 278 278 278 279 278 278 280 280 280 283 284 284 287 290 290 294 298 296 297 298 300 304 307 310 314
195 195 195 195 198 205 209 211 212 211 207 207 207 205 200 199 202 203 204 207 207 207 207 206 209 214 219 223 227 228 230 233 237 239 238 237 239 239 239 243 247 246 243 243 244 242 239 238 240 243 244 248 255 262 264 262 263 266 269 273 276 275 274 274 274 273 273 273 274 277 280 282 283 284 288 295 297 293 295 298 302 308 312 314 317
195 196 195 193 196 204 208 210 213 213 211 209 211 211 205 200 202 203 203 206 207 206 207 207 208 210 214 218 221 226 231 235 238 241 241 240 240 240 240 240 243 247 248 247 248 248 246 241 239 240 243 246 254 263 265 261 260 265 270 272 272 272 273 273 274 275 274 273 274 276 279 281 282 284 289 292 291 292 295 301 308 312 313 315 318
195 196 195 193 197 205 208 210 212 213 213 212 213 214 209 203 202 203 203 204 207 208 209 209 209 209 211 215 217 222 229 234 237 240 243 242 241 239 238 238 239 243 246 248 249 250 251 250 246 243 243 245 249 256 261 263 265 267 270 271 272 272 273 274 275 276 276 275 276 278 280 283 286 290 292 291 291 296 301 306 313 314 314 316 318
195 195 194 195 200 206 208 209 212 213 213 213 214 214 213 209 204 203 203 204 208 212 213 212 213 214 213 214 216 219 224 231 237 241 242 242 241 238 235 235 235 237 239 242 245 248 251 253 253 252 251 249 246 248 258 267 271 272 272 273 274 274 274 273 272 273 274 274 275 279 283 288 291 293 292 290 295 302 307 310 313 314 314 316 318
196 194 192 195 202 208 209 208 211 214 213 213 214 215 216 214 209 205 204 206 211 218 219 216 217 220 219 217 218 219 222 227 234 240 242 241 240 238 235 232 232 233 236 239 242 246 249 251 253 255 255 256 253 253 259 266 269 271 274 275 277 279 279 279 277 274 273 274 278 283 288 291 293 293 293 295 301 306 308 308 311 314 316 318 323
196 193 193 197 203 209 210 208 210 214 214 212 214 215 216 216 214 211 208 207 212 220 223 221 220 223 225 223 221 221 223 227 231 237 243 242 238 236 234 232 231 232 235 240 244 246 249 250 251 252 254 257 259 259 261 264 264 264 266 269 273 274 275 278 279 278 278 281 284 286 288 290 292 292 293 297 301 304 304 305 311 317 318 321 327
196 195 197 199 203 209 212 212 213 214 214 213 213 215 216 216 216 215 212 209 210 218 224 224 223 225 227 227 226 225 225 229 234 238 243 244 241 236 233 233 233 233 235 239 243 246 249 251 251 252 254 256 259 261 261 262 261 259 260 264 267 266 265 265 269 275 280 282 283 283 283 287 291 293 295 298 300 301 302 306 314 321 323 326 326
196 199 201 200 204 210 213 214 215 215 215 214 214 214 216 216 217 218 217 215 212 214 221 224 224 226 228 230 231 231 229 232 238 242 244 246 244 239 236 234 234 235 236 238 240 244 248 251 252 253 254 255 258 260 260 260 261 261 261 263 264 264 264 261 262 271 276 274 275 278 280 284 288 290 292 295 296 299 304 309 318 326 327 323 319
197 202 204 200 202 209 212 214 216 216 216 216 215 215 216 217 218 219 221 220 216 214 218 220 222 225 228 229 232 236 235 234 239 244 245 247 246 242 238 237 236 236 237 239 241 244 247 251 253 254 255 255 256 258 259 260 261 262 263 263 262 261 261 258 251 255 262 266 268 270 273 280 284 286 289 293 300 308 312 316 326 331 320 312 314
198 200 201 198 199 205 209 213 216 217 217 216 215 215 216 217 219 220 222 222 220 217 217 218 220 224 226 227 229 235 238 237 238 242 244 245 246 244 241 239 238 238 239 240 242 245 247 249 252 254 255 255 255 256 258 260 261 262 263 261 258 255 252 247 242 243 248 254 257 261 270 278 283 290 295 299 309 319 320 320 327 322 307 308 311
195 194 197 197 197 200 204 211 216 216 217 217 215 216 217 217 219 221 222 222 222 219 218 218 221 224 226 226 226 230 236 239 240 243 245 247 247 246 243 241 241 241 242 242 243 245 248 250 252 254 255 255 255 255 256 258 260 262 261 258 254 250 246 241 241 243 246 249 254 262 273 278 281 287 286 283 298 310 308 309 311 302 298 301 299
191 194 199 198 195 196 199 209 214 213 213 216 215 216 218 217 218 221 222 222 223 223 222 220 220 223 225 225 225 226 231 238 243 245 246 248 249 247 245 243 242 242 242 244 245 246 248 250 252 254 256 256 256 255 255 256 257 258 258 255 253 251 249 246 246 248 251 255 259 264 267 262 260 260 255 255 266 276 281 291 298 297 297 295 292
190 197 202 199 194 194 198 208 212 207 207 214 215 215 217 217 217 220 221 221 222 224 226 223 219 220 223 225 226 227 227 233 241 245 246 247 248 248 246 244 244 242 241 243 246 247 248 248 249 252 255 256 256 256 255 254 254 255 255 252 251 251 250 248 247 250 254 258 259 259 258 252 244 240 246 253 261 274 286 299 304 301 298 294 290
191 198 202 198 194 193 197 206 209 203 203 212 215 214 216 216 216 219 220 220 220 222 226 227 223 220 222 224 226 228 226 229 238 244 246 247 248 247 245 243 242 241 240 239 241 244 245 244 244 246 250 254 255 257 257 254 252 251 250 248 248 248 247 246 248 250 253 253 254 258 259 250 236 236 250 263 276 288 298 305 305 301 297 291 291
191 197 198 195 194 193 194 202 206 202 204 213 215 214 216 216 216 217 219 220 220 219 221 225 226 223 222 222 224 226 225 227 235 242 245 246 248 249 247 244 240 238 238 236 234 233 234 235 237 240 244 249 252 254 255 251 246 244 244 244 245 245 245 245 246 245 247 249 252 255 250 238 241 251 264 279 292 299 302 304 303 300 298 293 296
189 193 193 193 193 191 190 197 202 202 205 212 215 215 216 216 215 217 219 220 221 220 219 220 222 221 221 222 222 223 224 225 232 240 245 247 248 249 248 246 241 237 236 235 233 231 228 228 231 235 238 242 247 250 251 247 241 240 241 241 242 244 245 245 243 240 244 249 248 239 219 219 243 264 280 293 297 296 297 300 300 300 302 301 308
190 193 192 190 190 188 187 190 194 197 202 208 212 213 215 216 216 217 218 218 219 219 218 216 215 217 219 220 220 222 224 223 226 234 240 242 243 245 245 246 244 237 231 229 230 231 230 228 228 231 234 237 240 246 249 246 240 239 239 239 240 241 242 244 242 241 244 242 227 216 218 230 250 274 291 297 295 294 295 298 300 304 309 314 329
193 193 189 187 186 186 186 188 189 193 197 201 204 208 210 213 215 217 219 218 216 214 213 211 212 214 216 217 217 218 221 221 220 227 235 237 237 240 241 242 244 238 228 223 223 226 230 230 228 228 231 235 238 243 248 247 241 238 238 239 239 238 237 240 240 241 242 236 226 226 236 248 262 278 285 281 279 286 292 297 303 308 314 329 347
191 188 183 183 184 183 185 188 188 189 192 193 196 201 204 207 211 214 218 221 218 213 210 211 213 214 214 216 216 215 218 222 220 222 231 236 236 238 241 242 244 240 228 222 221 221 225 230 230 229 232 235 236 239 244 247 244 238 236 237 236 234 234 236 237 239 239 234 231 235 243 253 262 271 271 265 271 281 287 290 298 310 327 347 351
184 183 181 181 183 183 184 186 186 187 189 189 192 199 202 203 206 207 213 220 221 215 212 212 212 213 213 216 219 220 221 225 224 222 228 234 237 240 243 244 245 239 227 221 221 220 222 228 231 230 230 232 231 229 234 241 242 235 234 234 229 224 230 235 236 236 233 230 230 235 241 247 254 261 258 255 266 278 283 289 304 325 342 348 336
182 183 182 182 185 185 185 186 187 188 189 188 192 201 205 204 204 206 209 216 219 216 214 213 213 215 214 215 219 222 222 225 225 223 226 231 235 239 241 242 241 232 221 216 218 218 218 222 226 227 225 224 224 223 226 232 232 225 225 226 220 220 229 234 230 226 226 228 228 231 237 241 239 240 242 244 254 264 274 291 310 327 334 326 316
184 184 182 183 187 187 186 187 188 189 190 190 192 201 208 208 207 208 209 213 218 219 218 215 213 214 214 215 218 221 222 222 223 222 222 225 230 234 236 238 238 228 215 211 216 219 217 216 219 222 220 218 218 218 219 223 224 218 216 216 216 220 226 224 218 219 222 224 223 224 230 232 226 228 237 243 248 252 259 275 288 298 309 313 311
185 183 181 181 185 186 185 188 189 190 191 192 191 197 207 210 210 211 212 212 217 221 222 220 217 214 213 215 219 222 223 223 223 223 221 220 221 227 232 234 234 227 216 210 214 217 217 216 217 220 218 217 218 217 216 217 217 216 218 218 218 219 217 213 214 218 215 209 209 215 218 218 220 229 238 243 249 253 255 264 273 279 294 309 315
182 182 180 179 183 186 185 186 189 190 191 193 194 196 201 204 209 214 215 214 216 220 223 223 222 218 217 218 220 222 223 223 224 224 222 220 221 227 231 230 228 224 220 216 215 216 216 216 218 219 218 218 219 218 215 215 214 215 219 216 210 208 208 209 212 214 209 206 209 209 208 210 215 223 229 231 237 247 253 258 265 268 279 303 318
181 180 180 178 181 187 189 188 189 191 193 195 196 199 201 201 205 215 221 220 219 220 223 225 224 222 220 220 221 223 224 225 226 227 229 230 231 232 230 227 223 222 220 218 217 217 215 215 219 220 220 220 220 218 217 215 212 213 213 204 197 203 211 212 211 210 212 215 214 206 205 208 209 210 214 219 228 240 249 254 262 267 274 298 317
177 183 188 186 184 188 192 190 189 191 195 198 199 201 204 204 203 209 220 225 220 219 223 227 227 225 224 223 223 224 226 228 231 233 236 238 239 236 231 227 224 223 222 220 218 217 215 216 219 220 220 219 217 215 216 216 213 205 197 191 196 208 215 214 211 210 210 207 203 205 210 212 211 213 216 220 231 243 248 250 260 264 267 293 322
166 177 189 195 198 199 198 195 193 193 195 199 202 201 201 203 204 204 209 214 212 214 222 227 228 227 226 225 225 224 225 227 228 229 232 234 232 230 229 227 225 226 225 222 219 216 214 215 218 218 218 217 214 210 209 207 199 193 192 198 208 214 213 207 207 212 210 200 197 212 219 216 211 216 217 219 231 240 244 253 265 266 270 298 326
149 162 173 183 190 193 190 190 193 195 196 201 206 203 201 203 206 205 208 212 214 215 221 227 227 226 225 225 225 225 224 223 223 224 226 226 224 223 223 222 221 222 222 221 221 219 217 216 218 218 218 217 213 208 206 204 198 194 196 202 206 206 201 200 206 214 212 201 199 217 225 219 213 218 222 223 230 237 241 252 266 272 277 294 309
125 147 159 162 165 169 174 179 182 184 189 197 202 202 203 206 207 209 213 215 215 215 217 220 223 224 224 222 220 219 218 217 217 219 221 221 219 219 219 218 218 219 221 224 225 225 222 221 221 221 220 220 219 217 217 216 208 201 198 200 200 198 200 207 215 219 213 202 199 210 220 217 212 219 228 231 236 245 251 255 263 272 276 280 287
91 129 152 160 163 167 175 181 178 178 186 196 198 199 201 200 201 208 211 208 207 212 216 218 222 227 227 217 210 208 208 208 210 213 215 215 214 214 217 220 221 222 226 230 231 230 227 224 222 220 218 218 219 218 215 212 206 200 199 203 209 211 212 216 221 221 214 207 203 205 210 214 218 225 235 242 244 247 251 254 261 270 273 274 280
103 126 144 158 167 169 168 169 171 173 180 189 193 197 198 194 193 201 205 201 201 212 219 221 225 227 220 204 193 194 198 203 207 209 210 212 213 214 217 222 223 223 228 232 233 230 225 221 218 216 215 215 214 210 205 204 204 199 195 200 212 217 216 214 215 212 206 206 209 209 211 223 229 227 232 241 244 246 252 260 269 278 280 279 282
117 136 139 142 150 159 163 169 175 179 185 189 192 197 201 201 202 205 205 204 209 218 222 223 221 212 199 185 179 182 190 199 204 205 206 208 210 211 214 218 220 220 224 226 224 221 218 214 211 210 209 208 204 199 199 205 206 198 191 194 206 214 213 208 204 202 203 209 218 219 221 229 231 224 227 239 248 254 263 270 273 276 278 279 281
58 115 138 139 143 148 155 170 184 190 193 195 196 199 204 207 210 212 213 214 218 221 222 219 209 195 184 179 178 181 188 194 196 198 201 201 200 201 206 212 215 214 214 211 207 203 201 198 196 194 191 186 183 183 188 193 191 185 189 197 198 196 198 201 204 209 211 212 218 221 226 236 239 233 237 252 262 264 269 274 275 275 276 277 278
41 48 87 128 142 146 146 152 169 181 185 189 195 201 206 208 210 212 214 215 215 212 208 203 195 187 182 178 177 181 189 191 191 193 195 194 193 196 202 205 204 201 198 193 188 188 191 193 193 190 185 182 182 181 182 182 177 171 174 182 183 182 187 190 191 192 193 195 200 210 224 243 252 249 255 266 268 268 270 272 274 276 277 276 276
47 45 46 67 108 131 134 130 129 135 147 164 179 189 197 202 204 205 206 204 201 197 192 185 180 175 171 167 167 176 186 190 193 198 199 198 199 202 204 202 198 197 198 194 189 187 188 189 189 188 186 188 192 192 192 194 193 188 186 187 189 192 195 196 196 198 199 195 190 194 219 246 250 253 261 263 262 264 268 269 273 279 281 277 276
51 53 47 45 57 84 110 124 131 137 145 154 161 171 184 192 196 197 195 191 187 184 180 174 169 163 156 154 161 174 183 187 191 195 196 196 195 195 196 196 194 195 197 197 192 186 182 181 182 185 187 190 193 194 193 194 196 199 199 199 199 200 203 206 209 214 212 205 199 203 230 252 256 266 272 268 263 266 273 276 278 283 285 282 280
40 47 50 46 43 50 68 96 121 141 157 163 162 162 169 178 182 181 178 176 175 173 168 164 161 156 150 150 155 160 163 167 172 177 180 181 181 180 181 182 183 183 185 186 184 181 180 180 181 184 187 190 195 196 193 189 190 193 196 195 194 196 200 205 212 220 228 230 234 241 246 257 276 287 284 276 271 274 281 283 284 285 286 285 286
35 40 49 52 47 45 52 68 91 116 147 164 161 156 157 164 167 165 162 162 165 165 158 145 131 132 142 150 154 155 155 157 162 167 171 172 173 173 173 174 176 179 181 183 182 182 185 188 188 189 192 195 199 199 195 191 192 194 195 194 196 201 208 215 223 231 238 244 249 250 252 261 276 281 281 283 286 289 292 294 296 295 294 294 295
38 40 46 49 52 54 55 63 89 112 129 146 153 152 154 160 164 165 164 164 164 163 157 144 135 138 146 152 157 160 162 163 165 167 169 169 169 170 170 171 172 172 174 175 174 173 175 180 182 183 185 187 187 186 185 187 191 196 201 206 212 217 223 228 232 235 239 243 245 245 249 254 257 260 267 272 269 266 267 268 268 269 273 280 286
46 49 52 49 46 51 60 72 97 121 134 141 145 149 155 160 164 167 168 166 163 162 162 158 155 155 157 158 159 161 164 166 167 166 165 165 164 163 163 164 165 166 168 170 169 166 167 169 171 172 175 178 180 183 185 189 195 202 209 215 222 229 234 239 242 245 251 256 256 254 256 261 263 264 268 269 267 266 265 262 261 263 268 273 277
54 57 61 58 51 55 101 120 123 137 149 151 149 147 145 145 148 153 157 158 159 162 164 163 162 163 165 166 166 166 166 165 163 161 159 157 156 156 157 159 160 161 163 164 165 165 166 168 170 174 177 180 183 186 191 196 205 215 223 230 238 243 247 252 257 261 267 272 272 271 273 277 277 276 275 276 276 275 273 271 272 275 278 281 284
Height
1506 1509 1513 1517 1520 1523 1527 1530 1534 1537 1540 1543 1545 1548 1551 1553 1556 1558 1560 1562 1564 1565 1567 1569 1570 1572 1573 1575 1577 1578 1579 1580 1582 1583 1584 1585 1586 1587 1588 1589 1589 1590 1591 1592 1593 1593 1593 1594 1594 1595 1595 1595 1596 1596 1596 1596 1595 1595 1595 1595 1595 1594 1594 1594 1593 1592 1592 1592 1591 1590 1590 1589 1588 1587 1585 1584 1584 1582 1580 1579 1577 1576 1574 1573 1572
1501 1505 1509 1513 1516 1519 1524 1527 1530 1534 1537 1540 1542 1545 1548 1550 1553 1555 1557 1559 1561 1563 1564 1566 1568 1570 1571 1573 1574 1576 1577 1578 1580 1581 1582 1583 1584 1586 1587 1587 1588 1589 1590 1590 1591 1592 1592 1593 1593 1594 1594 1594 1594 1595 1595 1596 1596 1595 1595 1594 1594 1594 1593 1593 1592 1591 1590 1590 1589 1588 1588 1587 1586 1585 1584 1582 1581 1580 1578 1577 1575 1574 1572 1570 1569
1498 1501 1505 1509 1512 1516 1520 1523 1527 1530 1533 1536 1539 1542 1545 1547 1550 1552 1554 1557 1558 1560 1562 1564 1566 1567 1569 1570 1572 1573 1575 1576 1578 1579 1580 1581 1582 1584 1585 1586 1586 1587 1588 1589 1590 1590 1591 1591 1592 1593 1593 1593 1593 1594 1594 1594 1595 1595 1594 1594 1593 1593 1593 1592 1591 1590 1589 1588 1587 1587 1586 1585 1584 1583 1582 1580 1579 1578 1576 1575 1573 1572 1570 1569 1568
1495 1497 1501 1505 1509 1513 1516 1519 1523 1526 1530 1533 1536 1539 1542 1544 1546 1548 1551 1554 1556 1557 1559 1561 1563 1564 1566 1568 1569 1571 1572 1574 1575 1576 1578 1579 1580 1582 1583 1584 1585 1586 1586 1587 1588 1589 1589 1590 1591 1591 1592 1592 1592 1592 1592 1593 1593 1593 1592 1592 1592 1591 1591 1591 1590 1589 1588 1586 1585 1585 1584 1583 1582 1580 1579 1577 1576 1575 1574 1573 1571 1570 1568 1567 1566
1491 1493 1497 1501 1505 1508 1512 1515 1519 1522 1526 1529 1532 1536 1539 1541 1543 1545 1548 1551 1553 1554 1556 1558 1560 1561 1563 1565 1566 1568 1569 1571 1573 1574 1576 1577 1578 1580 1581 1582 1583 1584 1585 1585 1586 1587 1588 1588 1589 1590 1590 1590 1590 1591 1591 1591 1591 1591 1591 1590 1590 1590 1589 1589 1588 1588 1586 1585 1583 1583 1582 1581 1579 1578 1577 1575 1574 1573 1572 1570 1569 1567 1566 1565 1565
1488 1490 1493 1497 1501 1504 1507 1511 1514 1518 1521 1526 1529 1533 1536 1539 1540 1542 1544 1548 1550 1552 1553 1555 1557 1558 1560 1562 1563 1565 1566 1568 1570 1572 1573 1575 1576 1577 1579 1580 1581 1582 1582 1583 1584 1585 1586 1586 1587 1588 1588 1589 1589 1589 1590 1590 1590 1590 1589 1589 1589 1588 1588 1587 1587 1586 1585 1584 1582 1581 1580 1580 1579 1577 1576 1574 1573 1571 1570 1568 1566 1564 1563 1563 1563
1486 1487 1490 1494 1496 1499 1502 1506 1510 1514 1517 1522 1526 1529 1532 1536 1538 1539 1541 1544 1547 1549 1550 1552 1554 1555 1557 1559 1560 1562 1563 1565 1567 1569 1571 1572 1573 1575 1576 1577 1578 1579 1580 1581 1582 1583 1584 1584 1585 1586 1586 1586 1587 1588 1588 1588 1588 1588 1588 1588 1587 1587 1586 1586 1585 1585 1584 1583 1581 1580 1579 1579 1578 1576 1575 1573 1572 1570 1569 1566 1563 1562 1561 1561 1560
1483 1484 1487 1490 1492 1494 1498 1502 1506 1511 1514 1518 1522 1526 1529 1532 1535 1537 1539 1541 1543 1546 1548 1549 1551 1552 1554 1556 1558 1559 1560 1562 1564 1565 1567 1569 1571 1572 1573 1575 1576 1577 1578 1579 1580 1581 1582 1583 1583 1583 1584 1584 1585 1586 1586 1586 1586 1586 1586 1586 1586 1585 1585 1584 1584 1583 1582 1581 1580 1579 1578 1577 1576 1575 1574 1572 1571 1570 1569 1566 1562 1559 1557 1556 1556
1480 1482 1484 1486 1488 1491 1495 1499 1503 1508 1511 1515 1519 1522 1525 1528 1531 1534 1535 1537 1540 1543 1545 1547 1548 1550 1551 1553 1555 1556 1557 1559 1560 1562 1564 1566 1568 1569 1570 1572 1573 1575 1576 1577 1578 1579 1580 1581 1582 1582 1582 1582 1583 1583 1584 1584 1584 1585 1584 1584 1584 1583 1583 1583 1582 1581 1580 1579 1578 1578 1577 1575 1574 1574 1573 1571 1570 1569 1567 1565 1561 1558 1555 1552 1552
1477 1479 1481 1483 1486 1488 1492 1496 1500 1504 1508 1511 1515 1519 1522 1525 1528 1530 1532 1534 1537 1539 1542 1545 1546 1547 1548 1550 1551 1553 1554 1555 1556 1558 1561 1563 1565 1567 1567 1568 1570 1572 1573 1574 1575 1577 1578 1579 1580 1580 1580 1580 1580 1581 1581 1582 1582 1583 1583 1582 1582 1582 1581 1581 1580 1579 1578 1577 1577 1576 1575 1574 1573 1573 1571 1570 1569 1568 1565 1563 1560 1557 1554 1549 1547
1474 1477 1479 1481 1484 1486 1489 1493 1496 1500 1504 1507 1511 1515 1519 1522 1525 1527 1529 1531 1534 1536 1539 1541 1543 1544 1545 1546 1548 1549 1550 1551 1552 1555 1557 1560 1562 1564 1565 1566 1567 1568 1570 1571 1572 1574 1575 1576 1577 1578 1578 1578 1578 1578 1579 1579 1580 1580 1580 1580 1580 1580 1579 1579 1578 1577 1577 1575 1575 1574 1573 1571 1571 1571 1570 1569 1568 1565 1563 1562 1559 1556 1553 1549 1545
1472 1474 1477 1479 1482 1484 1486 1489 1492 1496 1500 1504 1507 1511 1515 1519 1521 1524 1526 1527 1530 1532 1535 1537 1539 1541 1543 1544 1545 1546 1547 1548 1549 1551 1554 1556 1559 1560 1562 1563 1564 1565 1566 1567 1569 1570 1572 1573 1574 1575 1576 1576 1575 1575 1576 1576 1577 1577 1578 1578 1578 1577 1576 1576 1576 1575 1574 1573 1572 1571 1570 1568 1567 1567 1568 1567 1565 1563 1561 1560 1558 1555 1553 1549 1545
1469 1471 1474 1476 1479 1481 1484 1486 1489 1493 1496 1500 1503 1507 1511 1515 1518 1520 1523 1524 1526 1529 1531 1533 1535 1537 1539 1541 1542 1543 1544 1545 1546 1547 1550 1553 1555 1557 1559 1560 1561 1562 1563 1564 1566 1567 1568 1569 1571 1572 1573 1574 1573 1573 1573 1573 1574 1575 1575 1575 1575 1575 1574 1574 1573 1572 1572 1571 1569 1568 1567 1565 1564 1564 1566 1565 1562 1560 1559 1557 1556 1553 1551 1548 1545
1466 1468 1471 1473 1475 1478 1481 1484 1486 1489 1493 1497 1500 1503 1507 1510 1514 1517 1520 1521 1523 1525 1527 1530 1531 1533 1535 1537 1539 1540 1541 1542 1542 1544 1547 1549 1552 1554 1556 1557 1558 1559 1560 1561 1562 1563 1564 1566 1567 1568 1569 1570 1571 1571 1571 1571 1571 1571 1572 1572 1572 1572 1571 1571 1571 1570 1569 1568 1567 1566 1565 1563 1561 1561 1562 1562 1560 1558 1557 1554 1553 1551 1548 1546 1543
1463 1465 1468 1470 1472 1474 1477 1481 1484 1487 1490 1493 1496 1499 1503 1506 1510 1513 1516 1518 1519 1521 1524 1526 1528 1529 1532 1534 1535 1537 1538 1539 1540 1541 1543 1546 1548 1551 1552 1554 1555 1556 1557 1558 1559 1560 1561 1562 1563 1564 1565 1566 1567 1568 1568 1568 1568 1568 1568 1569 1569 1568 1568 1568 1568 1567 1567 1566 1565 1564 1563 1561 1559 1558 1559 1560 1558 1557 1555 1553 1551 1549 1546 1543 1541
1460 1461 1463 1465 1467 1470 1474 1477 1480 1483 1487 1490 1492 1495 1499 1502 1506 1510 1513 1515 1517 1518 1520 1523 1524 1526 1528 1530 1532 1534 1535 1536 1537 1538 1540 1542 1545 1547 1549 1550 1551 1552 1553 1554 1555 1556 1557 1558 1560 1561 1562 1562 1563 1564 1565 1566 1566 1566 1566 1566 1566 1566 1566 1565 1565 1565 1564 1564 1563 1562 1561 1560 1559 1557 1557 1557 1557 1556 1553 1551 1550 1547 1543 1540 1539
1455 1456 1458 1461 1463 1466 1470 1473 1476 1479 1483 1486 1489 1492 1495 1499 1502 1506 1509 1512 1514 1515 1517 1519 1521 1523 1524 1526 1528 1530 1532 1533 1533 1535 1537 1539 1542 1544 1545 1546 1547 1548 1549 1550 1551 1552 1553 1555 1556 1557 1558 1559 1560 1561 1562 1563 1563 1563 1563 1564 1564 1564 1564 1564 1564 1563 1562 1562 1561 1560 1559 1558 1557 1556 1555 1555 1554 1553 1551 1549 1547 1545 1541 1539 1536
1450 1451 1453 1456 1459 1462 1466 1469 1472 1475 1478 1482 1485 1488 1491 1495 1499 1502 1505 1509 1511 1513 1514 1516 1518 1519 1521 1523 1524 1526 1529 1529 1530 1532 1534 1536 1538 1541 1542 1542 1543 1544 1546 1547 1548 1549 1550 1551 1552 1553 1554 1556 1557 1558 1559 1559 1560 1560 1561 1561 1561 1561 1561 1562 1562 1561 1560 1560 1559 1558 1557 1556 1556 1555 1554 1554 1553 1551 1549 1547 1545 1543 1541 1539 1536
1443 1445 1448 1452 1456 1459 1463 1465 1468 1472 1475 1478 1482 1485 1488 1492 1495 1499 1502 1505 1508 1511 1512 1513 1515 1516 1518 1520 1521 1523 1525 1526 1527 1529 1530 1532 1535 1537 1538 1539 1540 1541 1542 1543 1544 1546 1546 1547 1548 1549 1551 1552 1553 1554 1555 1556 1556 1557 1558 1558 1558 1558 1559 1560 1560 1560 1559 1558 1557 1556 1556 1555 1554 1553 1552 1551 1550 1549 1547 1545 1543 1542 1541 1539 1537
1439 1442 1446 1451 1454 1457 1459 1462 1465 1468 1472 1475 1479 1482 1485 1489 1492 1495 1499 1501 1505 1508 1510 1511 1512 1514 1516 1518 1519 1520 1521 1523 1524 1525 1527 1529 1531 1533 1534 1535 1536 1538 1539 1540 1541 1542 1543 1544 1545 1546 1547 1549 1550 1551 1551 1552 1552 1553 1554 1555 1555 1555 1556 1557 1557 1557 1557 1556 1556 1555 1555 1554 1553 1552 1550 1549 1547 1546 1545 1543 1542 1542 1541 1539 1537
1438 1441 1444 1448 1451 1454 1456 1459 1462 1466 1469 1473 1477 1480 1482 1486 1489 1492 1495 1498 1501 1504 1507 1509 1510 1511 1513 1515 1516 1517 1518 1518 1520 1521 1523 1525 1527 1529 1530 1531 1533 1535 1536 1537 1538 1539 1540 1540 1541 1542 1543 1545 1546 1547 1548 1549 1549 1550 1551 1551 1551 1552 1553 1553 1553 1553 1554 1554 1554 1554 1554 1554 1552 1551 1550 1549 1548 1546 1544 1543 1542 1542 1541 1539 1536
1435 1437 1441 1445 1448 1451 1454 1456 1459 1464 1467 1470 1473 1476 1479 1483 1486 1488 1492 1495 1497 1500 1503 1506 1508 1509 1511 1512 1513 1514 1515 1515 1516 1517 1519 1521 1523 1525 1527 1528 1530 1532 1533 1533 1534 1535 1536 1537 1538 1538 1539 1541 1542 1543 1544 1545 1545 1546 1547 1547 1547 1548 1549 1550 1550 1550 1550 1550 1551 1551 1552 1551 1551 1551 1550 1549 1548 1546 1544 1543 1542 1541 1539 1538 1535
1432 1434 1438 1442 1445 1448 1451 1453 1457 1461 1464 1466 1470 1473 1476 1480 1483 1485 1488 1491 1494 1496 1499 1502 1504 1506 1508 1509 1510 1511 1512 1512 1512 1513 1516 1517 1519 1521 1523 1525 1526 1528 1529 1530 1530 1532 1533 1534 1534 1535 1536 1537 1538 1539 1540 1541 1541 1542 1543 1543 1544 1545 1546 1547 1547 1547 1547 1547 1548 1548 1548 1548 1548 1548 1547 1546 1545 1544 1542 1541 1540 1538 1537 1536 1534
1430 1432 1435 1439 1442 1445 1448 1451 1454 1458 1461 1463 1466 1470 1473 1476 1479 1482 1485 1488 1490 1493 1495 1498 1500 1502 1504 1506 1507 1508 1509 1510 1509 1510 1512 1514 1515 1517 1520 1521 1523 1524 1525 1526 1528 1529 1530 1530 1531 1532 1533 1534 1535 1535 1536 1537 1538 1539 1540 1540 1541 1542 1543 1543 1544 1544 1544 1545 1545 1545 1545 1545 1545 1545 1544 1543 1542 1541 1540 1539 1538 1537 1536 1535 1533
1428 1430 1433 1436 1439 1443 1446 1448 1452 1455 1458 1460 1463 1466 1469 1473 1475 1478 1481 1484 1486 1489 1491 1493 1496 1498 1500 1502 1504 1505 1506 1507 1507 1507 1508 1511 1512 1513 1515 1517 1518 1519 1521 1523 1525 1526 1526 1527 1528 1529 1530 1531 1531 1532 1533 1534 1535 1536 1536 1537 1538 1539 1539 1540 1541 1541 1542 1542 1542 1542 1542 1543 1542 1541 1541 1540 1539 1538 1537 1537 1536 1535 1534 1533 1532
1427 1429 1431 1434 1437 1440 1443 1446 1449 1453 1455 1458 1460 1463 1466 1469 1472 1474 1477 1480 1482 1485 1487 1490 1492 1494 1496 1498 1500 1502 1503 1504 1504 1504 1505 1507 1508 1510 1511 1513 1514 1515 1517 1519 1520 1521 1522 1524 1525 1526 1527 1528 1528 1529 1529 1531 1532 1533 1533 1534 1535 1535 1536 1537 1538 1538 1538 1539 1539 1540 1540 1540 1539 1538 1538 1538 1537 1536 1535 1535 1535 1534 1533 1532 1531
1425 1427 1430 1432 1435 1438 1441 1444 1447 1450 1453 1455 1458 1461 1463 1466 1468 1470 1472 1475 1478 1481 1483 1486 1488 1490 1492 1494 1496 1498 1499 1501 1502 1502 1502 1503 1505 1506 1508 1509 1510 1511 1512 1514 1515 1517 1519 1520 1522 1523 1524 1525 1526 1526 1526 1528 1529 1529 1530 1531 1531 1532 1533 1534 1535 1535 1535 1536 1537 1537 1537 1537 1536 1536 1536 1535 1535 1534 1534 1533 1533 1532 1531 1530 1528
1423 1425 1428 1431 1433 1436 1439 1441 1444 1447 1450 1452 1455 1457 1460 1462 1464 1466 1468 1471 1474 1477 1480 1482 1485 1487 1489 1491 1493 1494 1495 1497 1498 1498 1498 1499 1501 1503 1504 1504 1505 1505 1507 1509 1512 1514 1515 1517 1518 1520 1520 1521 1523 1523 1523 1524 1525 1526 1526 1527 1528 1529 1530 1530 1531 1531 1532 1533 1533 1533 1534 1534 1534 1534 1534 1533 1533 1532 1532 1531 1531 1530 1529 1528 1526
1421 1424 1427 1429 1431 1433 1436 1439 1442 1445 1447 1450 1453 1455 1457 1460 1462 1464 1466 1468 1471 1474 1477 1479 1482 1484 1486 1488 1489 1490 1491 1492 1494 1495 1494 1495 1498 1499 1500 1501 1501 1502 1504 1507 1509 1511 1512 1512 1514 1516 1517 1518 1520 1521 1521 1520 1520 1522 1523 1523 1525 1526 1526 1527 1527 1528 1528 1529 1530 1530 1530 1531 1531 1531 1531 1531 1531 1530 1530 1530 1529 1528 1527 1526 1525
1420 1422 1425 1427 1429 1431 1434 1437 1440 1443 1445 1448 1451 1452 1454 1457 1460 1462 1464 1466 1469 1472 1474 1476 1478 1480 1483 1485 1486 1487 1488 1489 1491 1493 1492 1493 1495 1497 1497 1499 1500 1500 1503 1505 1507 1508 1509 1509 1510 1512 1514 1515 1516 1517 1517 1517 1517 1518 1519 1520 1522 1522 1522 1523 1524 1524 1525 1526 1527 1527 1528 1528 1528 1529 1529 1529 1529 1528 1528 1528 1527 1526 1525 1525 1525
1418 1420 1422 1424 1426 1429 1432 1435 1438 1441 1443 1446 1448 1449 1451 1454 1457 1459 1461 1463 1466 1468 1470 1472 1475 1477 1480 1482 1483 1484 1485 1487 1489 1490 1490 1491 1493 1494 1495 1497 1498 1499 1501 1502 1503 1504 1505 1506 1507 1508 1510 1511 1511 1513 1514 1513 1514 1515 1516 1517 1517 1517 1518 1519 1520 1521 1522 1523 1524 1525 1525 1526 1526 1527 1527 1527 1527 1527 1527 1526 1526 1525 1524 1524 1524
1415 1417 1420 1422 1424 1427 1431 1433 1436 1439 1442 1444 1446 1447 1449 1452 1454 1457 1459 1461 1463 1465 1467 1469 1472 1474 1477 1478 1479 1480 1483 1484 1486 1488 1488 1489 1490 1491 1493 1495 1496 1496 1498 1499 1499 1500 1501 1503 1503 1504 1505 1506 1507 1508 1509 1510 1510 1512 1513 1514 1513 1513 1514 1516 1517 1519 1520 1521 1522 1523 1524 1524 1525 1525 1525 1526 1525 1526 1526 1525 1525 1525 1524 1524 1524
1413 1415 1417 1419 1422 1425 1429 1431 1434 1436 1439 1442 1444 1445 1447 1449 1451 1453 1455 1458 1460 1462 1464 1466 1468 1471 1473 1475 1476 1478 1480 1482 1484 1485 1486 1488 1488 1489 1490 1492 1493 1493 1494 1494 1495 1496 1497 1499 1500 1500 1502 1503 1503 1504 1506 1507 1508 1510 1511 1511 1510 1511 1512 1514 1515 1516 1518 1520 1521 1522 1522 1522 1523 1523 1523 1524 1524 1524 1524 1524 1524 1524 1523 1523 1522
1412 1413 1415 1418 1420 1423 1426 1429 1432 1434 1437 1439 1442 1443 1445 1447 1448 1450 1452 1454 1456 1458 1460 1463 1465 1467 1470 1472 1473 1475 1478 1480 1481 1483 1484 1485 1486 1487 1488 1489 1489 1490 1490 1491 1492 1492 1494 1496 1497 1498 1499 1500 1501 1503 1504 1505 1507 1508 1508 1509 1509 1510 1511 1512 1513 1514 1516 1517 1519 1520 1520 1520 1520 1520 1521 1522 1523 1523 1523 1523 1524 1523 1522 1522 1521
1411 1412 1414 1416 1419 1422 1425 1427 1430 1432 1434 1437 1439 1442 1444 1446 1447 1448 1449 1451 1453 1455 1457 1459 1461 1463 1466 1469 1471 1473 1475 1477 1479 1481 1482 1483 1484 1485 1485 1486 1486 1487 1487 1489 1490 1490 1492 1494 1495 1496 1497 1498 1499 1500 1501 1502 1503 1504 1505 1507 1508 1508 1508 1509 1511 1513 1514 1515 1517 1518 1518 1518 1518 1519 1519 1520 1521 1521 1522 1523 1523 1522 1521 1521 1520
1410 1412 1414 1416 1418 1421 1423 1426 1428 1430 1432 1434 1437 1440 1442 1444 1445 1447 1447 1448 1451 1453 1454 1454 1456 1460 1463 1465 1467 1470 1472 1474 1476 1478 1479 1480 1482 1482 1483 1483 1484 1484 1485 1486 1487 1488 1489 1491 1491 1492 1493 1494 1495 1496 1497 1499 1500 1501 1503 1504 1504 1504 1505 1508 1509 1510 1512 1514 1515 1516 1516 1517 1517 1517 1518 1519 1519 1519 1520 1521 1521 1521 1520 1519 1518
1407 1409 1412 1415 1418 1420 1423 1425 1426 1427 1430 1432 1435 1437 1440 1441 1443 1445 1446 1447 1448 1449 1449 1451 1454 1457 1459 1461 1463 1466 1468 1470 1472 1473 1475 1476 1478 1479 1480 1481 1481 1481 1481 1482 1483 1484 1485 1486 1487 1488 1490 1490 1491 1493 1494 1496 1497 1499 1500 1500 1499 1499 1502 1504 1505 1506 1509 1512 1514 1514 1514 1515 1515 1516 1516 1517 1517 1518 1518 1519 1519 1519 1519 1518 1517
1406 1407 1409 1413 1416 1419 1422 1423 1424 1425 1428 1431 1433 1436 1438 1440 1441 1444 1445 1445 1444 1445 1447 1449 1452 1454 1455 1457 1460 1462 1464 1466 1468 1469 1470 1472 1474 1476 1477 1478 1479 1478 1478 1478 1479 1480 1481 1483 1484 1486 1487 1488 1489 1490 1491 1492 1494 1495 1495 1495 1496 1498 1500 1501 1501 1503 1506 1509 1511 1511 1512 1513 1513 1513 1514 1515 1515 1516 1517 1517 1518 1518 1518 1517 1516
1406 1407 1408 1411 1414 1417 1419 1420 1422 1425 1428 1430 1433 1435 1437 1439 1441 1441 1441 1442 1442 1443 1445 1446 1448 1450 1452 1454 1456 1458 1460 1461 1463 1465 1467 1468 1471 1472 1473 1473 1474 1474 1474 1475 1476 1477 1479 1480 1482 1483 1484 1484 1485 1486 1486 1488 1490 1492 1493 1495 1497 1500 1501 1501 1502 1503 1505 1508 1509 1510 1510 1511 1512 1512 1512 1513 1514 1514 1515 1515 1516 1516 1516 1516 1515
1407 1408 1409 1410 1412 1414 1416 1418 1422 1425 1428 1430 1432 1433 1435 1437 1438 1438 1438 1440 1441 1441 1442 1444 1446 1448 1450 1451 1452 1454 1456 1457 1459 1461 1463 1465 1467 1468 1468 1468 1469 1470 1471 1472 1474 1476 1477 1478 1479 1479 1481 1482 1483 1484 1486 1487 1489 1491 1493 1495 1498 1501 1502 1502 1502 1503 1506 1508 1509 1508 1509 1510 1511 1511 1511 1511 1512 1513 1513 1513 1514 1514 1514 1514 1514
1408 1408 1408 1410 1412 1413 1415 1418 1421 1424 1425 1427 1429 1430 1432 1434 1434 1435 1437 1439 1440 1440 1441 1443 1445 1446 1447 1449 1450 1452 1453 1454 1456 1459 1461 1462 1463 1464 1464 1465 1466 1467 1469 1470 1472 1473 1474 1475 1475 1476 1478 1480 1482 1484 1486 1488 1490 1492 1494 1496 1498 1500 1503 1504 1503 1505 1507 1508 1508 1508 1509 1509 1509 1510 1510 1510 1510 1511 1511 1511 1511 1512 1512 1512 1512
1410 1410 1409 1410 1411 1414 1416 1418 1420 1421 1423 1424 1426 1428 1430 1432 1433 1434 1436 1437 1438 1438 1440 1441 1443 1444 1445 1447 1449 1450 1451 1452 1454 1456 1457 1458 1460 1461 1461 1462 1463 1465 1466 1468 1469 1471 1472 1473 1474 1476 1478 1480 1481 1483 1485 1488 1490 1492 1494 1496 1497 1499 1502 1504 1505 1506 1507 1508 1508 1508 1508 1508 1508 1508 1508 1508 1509 1509 1510 1510 1510 1510 1511 1511 1511
1413 1412 1411 1411 1411 1413 1414 1416 1417 1418 1420 1422 1424 1427 1429 1431 1432 1433 1434 1435 1436 1437 1439 1440 1442 1443 1445 1446 1447 1448 1449 1450 1451 1453 1454 1456 1457 1458 1459 1460 1461 1463 1464 1466 1468 1469 1470 1471 1473 1476 1478 1479 1480 1482 1484 1487 1490 1492 1494 1496 1497 1498 1500 1502 1504 1505 1506 1507 1507 1507 1507 1507 1506 1506 1507 1507 1507 1508 1508 1508 1509 1509 1509 1509 1509
1414 1414 1414 1413 1411 1411 1412 1413 1415 1416 1417 1420 1423 1425 1428 1430 1431 1432 1433 1434 1435 1436 1437 1439 1441 1442 1443 1445 1446 1447 1447 1448 1449 1451 1453 1455 1456 1457 1457 1459 1460 1461 1463 1464 1466 1467 1469 1471 1473 1476 1478 1479 1479 1480 1482 1484 1487 1491 1493 1495 1496 1496 1497 1499 1501 1502 1503 1504 1504 1505 1505 1505 1505 1505 1506 1506 1506 1506 1506 1507 1507 1507 1507 1507 1506
1413 1413 1414 1414 1412 1410 1410 1412 1413 1414 1416 1419 1422 1425 1427 1429 1430 1431 1432 1433 1434 1435 1437 1438 1440 1441 1443 1445 1446 1446 1446 1447 1448 1450 1451 1453 1454 1455 1457 1458 1460 1461 1462 1463 1465 1467 1469 1471 1473 1475 1477 1478 1478 1480 1482 1483 1485 1488 1490 1492 1492 1493 1495 1497 1499 1500 1501 1501 1502 1502 1503 1503 1503 1504 1504 1504 1504 1504 1504 1505 1505 1505 1504 1504 1503
1412 1413 1414 1415 1414 1411 1410 1411 1412 1414 1416 1420 1423 1425 1427 1429 1430 1431 1432 1433 1434 1435 1436 1438 1439 1441 1442 1444 1445 1445 1446 1447 1448 1449 1451 1452 1454 1456 1457 1459 1461 1462 1463 1464 1465 1467 1469 1471 1472 1474 1476 1477 1478 1480 1482 1483 1485 1488 1490 1491 1492 1494 1496 1498 1499 1499 1499 1499 1500 1500 1501 1501 1501 1502 1502 1502 1502 1502 1503 1503 1503 1503 1502 1502 1501
1415 1415 1415 1415 1414 1413 1412 1413 1414 1416 1418 1421 1424 1426 1428 1429 1431 1432 1433 1434 1434 1436 1437 1439 1440 1441 1442 1443 1444 1446 1447 1448 1449 1450 1452 1453 1455 1457 1458 1460 1461 1462 1463 1465 1466 1468 1470 1471 1473 1475 1476 1478 1480 1482 1483 1484 1486 1488 1490 1491 1492 1494 1495 1496 1497 1497 1497 1498 1498 1499 1499 1500 1501 1501 1501 1501 1501 1502 1502 1502 1502 1501 1501 1501 1500
1420 1419 1417 1415 1414 1414 1415 1417 1418 1419 1421 1423 1425 1427 1428 1430 1431 1432 1433 1434 1435 1436 1437 1440 1442 1443 1443 1444 1445 1446 1448 1449 1450 1451 1453 1455 1456 1458 1459 1461 1462 1463 1465 1466 1468 1469 1471 1473 1474 1475 1477 1479 1481 1482 1483 1484 1486 1487 1489 1490 1491 1493 1494 1495 1495 1496 1496 1496 1497 1498 1498 1498 1499 1500 1500 1500 1500 1500 1500 1501 1500 1500 1499 1499 1499
1420 1419 1417 1415 1415 1416 1418 1420 1421 1422 1423 1425 1427 1429 1430 1431 1432 1433 1433 1434 1435 1436 1437 1439 1441 1443 1445 1446 1447 1448 1449 1450 1451 1452 1454 1455 1457 1459 1460 1462 1463 1465 1466 1468 1469 1470 1472 1473 1475 1476 1478 1479 1481 1482 1483 1484 1485 1487 1488 1489 1490 1492 1493 1493 1494 1494 1495 1495 1495 1496 1496 1496 1497 1497 1497 1498 1498 1498 1498 1498 1497 1497 1497 1496 1496
1419 1418 1418 1418 1418 1420 1422 1423 1424 1425 1426 1427 1429 1431 1432 1433 1433 1434 1434 1434 1436 1437 1438 1440 1441 1443 1444 1445 1447 1448 1449 1450 1452 1453 1455 1457 1459 1460 1462 1463 1465 1466 1467 1469 1470 1471 1472 1474 1475 1477 1478 1479 1481 1482 1483 1484 1485 1487 1488 1489 1490 1490 1491 1492 1492 1493 1493 1493 1493 1494 1494 1494 1494 1495 1495 1495 1495 1495 1495 1495 1495 1494 1494 1494 1493
1420 1420 1421 1422 1423 1424 1425 1426 1426 1427 1428 1429 1431 1433 1434 1435 1435 1436 1436 1436 1437 1438 1440 1441 1443 1444 1445 1446 1448 1449 1451 1452 1454 1456 1457 1459 1460 1462 1463 1465 1466 1467 1469 1470 1471 1472 1474 1475 1476 1477 1478 1479 1481 1482 1483 1484 1485 1486 1487 1487 1488 1489 1489 1490 1490 1491 1491 1491 1491 1491 1491 1492 1492 1492 1492 1492 1493 1493 1493 1493 1493 1492 1492 1491 1491